THY7JV LTFM-LFMN

Flight info

Callsign THY7JV
Flight time N/A
Altitude 40000
Route VADEN N618 BAKLO/N0485F430 N618 GOL DCT DOLAP DCT VELIT DCT KEMIX DCT XAMIT/N0481F410 DCT NIKMA DCT KARDU DCT TOBGA/N0435F300 DCT DOBIM DCT AKUTI R16 KERIT
Aircraft A359/H-SDE2E3GHIJ3J4J5LM1ORWXY/LB1D1

Departure

Time N/A
Airport İstanbul Airport (LTFM)

Arrival

Time 2026-05-07 08:27
Airport Nice-Côte d'Azur Airport (LFMN)
Time Latitude Longitude Altitude Speed Heading
2026-05-07 07:50 43.22165 8.95731 24826 ft 377 kts 289°
2026-05-07 07:51 43.22943 8.92401 24375 ft 369 kts 277°
2026-05-07 07:51 43.23382 8.88955 23897 ft 366 kts 276°
2026-05-07 07:51 43.23788 8.85510 23479 ft 364 kts 276°
2026-05-07 07:51 43.24194 8.82088 23070 ft 363 kts 276°
2026-05-07 07:52 43.24602 8.78673 22660 ft 361 kts 276°
2026-05-07 07:52 43.25010 8.75276 22252 ft 360 kts 276°
2026-05-07 07:52 43.25416 8.71896 21865 ft 358 kts 276°
2026-05-07 07:52 43.25820 8.68529 21469 ft 357 kts 277°
2026-05-07 07:53 43.26222 8.65179 21078 ft 355 kts 277°
2026-05-07 07:53 43.26622 8.61836 20698 ft 354 kts 277°
2026-05-07 07:53 43.27014 8.58546 20329 ft 353 kts 277°
2026-05-07 07:53 43.27414 8.55188 19951 ft 351 kts 277°
2026-05-07 07:54 43.27806 8.51886 19581 ft 350 kts 277°
2026-05-07 07:54 43.28191 8.48639 19222 ft 349 kts 277°
2026-05-07 07:54 43.28579 8.45359 18863 ft 347 kts 277°
2026-05-07 07:54 43.28964 8.42093 18508 ft 346 kts 277°
2026-05-07 07:55 43.29347 8.38836 18131 ft 344 kts 277°
2026-05-07 07:55 43.29727 8.35595 17733 ft 343 kts 277°
2026-05-07 07:55 43.30104 8.32369 17437 ft 342 kts 277°
2026-05-07 07:55 43.30480 8.29150 17171 ft 341 kts 278°
2026-05-07 07:56 43.30854 8.25933 16907 ft 340 kts 278°
2026-05-07 07:56 43.31227 8.22727 16645 ft 339 kts 278°
2026-05-07 07:56 43.31597 8.19528 16389 ft 339 kts 278°
2026-05-07 07:56 43.31966 8.16338 16136 ft 338 kts 278°
2026-05-07 07:57 43.32334 8.13147 15878 ft 337 kts 278°
2026-05-07 07:57 43.32698 8.09976 15630 ft 336 kts 278°
2026-05-07 07:57 43.33062 8.06808 15282 ft 334 kts 278°
2026-05-07 07:57 43.33416 8.03708 14737 ft 331 kts 278°
2026-05-07 07:58 43.33772 8.00586 14187 ft 329 kts 278°
2026-05-07 07:58 43.34124 7.97495 13615 ft 327 kts 278°
2026-05-07 07:58 43.34473 7.94423 13057 ft 323 kts 278°
2026-05-07 07:58 43.34818 7.91386 12526 ft 319 kts 278°
2026-05-07 07:59 43.35157 7.88386 11993 ft 316 kts 278°
2026-05-07 07:59 43.35491 7.85420 11472 ft 312 kts 278°
2026-05-07 07:59 43.35821 7.82488 10954 ft 309 kts 278°
2026-05-07 07:59 43.36146 7.79597 10652 ft 300 kts 278°
2026-05-07 08:00 43.36455 7.76838 10535 ft 285 kts 278°
2026-05-07 08:00 43.36748 7.74214 10425 ft 271 kts 278°
2026-05-07 08:00 43.37024 7.71738 10303 ft 259 kts 278°
2026-05-07 08:00 43.37298 7.69269 9972 ft 257 kts 278°
2026-05-07 08:01 43.37566 7.66840 9619 ft 268 kts 277°
2026-05-07 08:01 43.37849 7.64280 9353 ft 273 kts 277°
2026-05-07 08:01 43.38134 7.61698 8955 ft 272 kts 278°
2026-05-07 08:01 43.38418 7.59121 8508 ft 271 kts 278°
2026-05-07 08:02 43.38698 7.56580 8146 ft 267 kts 278°
2026-05-07 08:02 43.38974 7.54065 7790 ft 265 kts 278°
2026-05-07 08:02 43.39249 7.51561 7442 ft 264 kts 278°
2026-05-07 08:02 43.39521 7.49073 7099 ft 262 kts 278°
2026-05-07 08:03 43.39791 7.46603 6762 ft 260 kts 278°
2026-05-07 08:03 43.40058 7.44146 6417 ft 259 kts 278°
2026-05-07 08:03 43.40324 7.41704 6074 ft 258 kts 278°
2026-05-07 08:03 43.40584 7.39299 5742 ft 257 kts 278°
2026-05-07 08:04 43.40847 7.36873 5413 ft 256 kts 278°
2026-05-07 08:04 43.41109 7.34453 5083 ft 256 kts 278°
2026-05-07 08:04 43.41369 7.32039 4767 ft 254 kts 278°
2026-05-07 08:04 43.41627 7.29636 4442 ft 254 kts 278°
2026-05-07 08:05 43.41880 7.27289 4296 ft 242 kts 278°
2026-05-07 08:05 43.42119 7.25063 4180 ft 229 kts 278°
2026-05-07 08:05 43.42419 7.22953 4046 ft 219 kts 287°
2026-05-07 08:05 43.43143 7.21176 3950 ft 210 kts 307°
2026-05-07 08:06 43.44067 7.19682 3848 ft 201 kts 310°
2026-05-07 08:06 43.44978 7.18279 3747 ft 192 kts 310°
2026-05-07 08:06 43.45882 7.16986 3627 ft 184 kts 318°
2026-05-07 08:06 43.47010 7.16267 3574 ft 175 kts 347°
2026-05-07 08:07 43.48199 7.16087 3385 ft 170 kts 353°
2026-05-07 08:07 43.49372 7.15996 3168 ft 168 kts 354°
2026-05-07 08:07 43.50524 7.15905 3003 ft 168 kts 354°
2026-05-07 08:07 43.51692 7.15809 2720 ft 169 kts 354°
2026-05-07 08:08 43.52880 7.15704 2389 ft 172 kts 354°
2026-05-07 08:08 43.53988 7.15598 2146 ft 170 kts 354°
2026-05-07 08:08 43.55165 7.15485 1900 ft 168 kts 355°
2026-05-07 08:08 43.56318 7.15375 1673 ft 164 kts 355°
2026-05-07 08:09 43.57443 7.15267 1450 ft 160 kts 355°
2026-05-07 08:09 43.58543 7.15161 1233 ft 157 kts 356°
2026-05-07 08:09 43.59610 7.15058 1028 ft 154 kts 356°
2026-05-07 08:09 43.60675 7.14990 826 ft 152 kts
2026-05-07 08:10 43.61710 7.15195 639 ft 147 kts 25°
2026-05-07 08:10 43.62392 7.16017 630 ft 123 kts 64°
2026-05-07 08:10 43.62885 7.17032 560 ft 131 kts 53°
2026-05-07 08:10 43.63453 7.17995 368 ft 126 kts 50°
2026-05-07 08:11 43.64065 7.18827 266 ft 123 kts 46°
2026-05-07 08:11 43.64683 7.19689 261 ft 145 kts 49°
2026-05-07 08:11 43.65464 7.20863 1159 ft 180 kts 49°
2026-05-07 08:11 43.66310 7.22189 2134 ft 184 kts 50°
2026-05-07 08:12 43.67164 7.23535 2724 ft 188 kts 50°
2026-05-07 08:12 43.68034 7.24915 2965 ft 191 kts 49°
2026-05-07 08:12 43.68740 7.26424 2999 ft 192 kts 72°
2026-05-07 08:12 43.68759 7.28235 3008 ft 191 kts 104°
2026-05-07 08:13 43.68325 7.29975 2996 ft 192 kts 112°
2026-05-07 08:13 43.67810 7.31680 3007 ft 192 kts 113°
2026-05-07 08:13 43.67159 7.33286 2997 ft 193 kts 133°
2026-05-07 08:13 43.66034 7.34262 3006 ft 192 kts 158°
2026-05-07 08:14 43.64767 7.34866 3000 ft 193 kts 162°
2026-05-07 08:14 43.63479 7.35416 2996 ft 194 kts 163°
2026-05-07 08:14 43.62188 7.35965 2999 ft 194 kts 163°
2026-05-07 08:14 43.60896 7.36523 3000 ft 195 kts 163°
2026-05-07 08:15 43.59603 7.37089 2997 ft 195 kts 163°
2026-05-07 08:15 43.58311 7.37662 2999 ft 195 kts 163°
2026-05-07 08:15 43.57019 7.38244 2998 ft 195 kts 163°
2026-05-07 08:15 43.55727 7.38833 2992 ft 196 kts 163°
2026-05-07 08:16 43.54453 7.39425 2991 ft 196 kts 163°
2026-05-07 08:16 43.53163 7.40037 2995 ft 196 kts 163°
2026-05-07 08:16 43.51877 7.40651 2991 ft 196 kts 163°
2026-05-07 08:16 43.50585 7.41269 2996 ft 196 kts 163°
2026-05-07 08:17 43.49298 7.41886 2990 ft 196 kts 163°
2026-05-07 08:17 43.47969 7.42135 2990 ft 193 kts 192°
2026-05-07 08:17 43.46735 7.41504 2993 ft 188 kts 210°
2026-05-07 08:17 43.45610 7.40593 2987 ft 188 kts 214°
2026-05-07 08:18 43.44503 7.39623 2991 ft 188 kts 215°
2026-05-07 08:18 43.43411 7.38642 2986 ft 187 kts 217°
2026-05-07 08:18 43.42625 7.37257 2995 ft 184 kts 252°
2026-05-07 08:18 43.42465 7.35532 3003 ft 183 kts 270°
2026-05-07 08:19 43.42509 7.33776 2996 ft 184 kts 272°
2026-05-07 08:19 43.42579 7.32012 2991 ft 185 kts 273°
2026-05-07 08:19 43.42651 7.30241 2988 ft 185 kts 273°
2026-05-07 08:19 43.42720 7.28490 2991 ft 186 kts 273°
2026-05-07 08:20 43.42788 7.26724 2994 ft 185 kts 273°
2026-05-07 08:20 43.42855 7.24951 2998 ft 185 kts 273°
2026-05-07 08:20 43.42924 7.23179 2991 ft 186 kts 273°
2026-05-07 08:20 43.42992 7.21404 2989 ft 186 kts 273°
2026-05-07 08:21 43.43057 7.19630 3000 ft 185 kts 273°
2026-05-07 08:21 43.43166 7.17853 2987 ft 191 kts 280°
2026-05-07 08:21 43.43748 7.16304 2989 ft 181 kts 316°
2026-05-07 08:21 43.44914 7.15779 3005 ft 182 kts
2026-05-07 08:22 43.46169 7.16073 2996 ft 184 kts
2026-05-07 08:22 43.47431 7.16154 2994 ft 183 kts 356°
2026-05-07 08:22 43.48696 7.16083 2990 ft 172 kts 354°
2026-05-07 08:22 43.49829 7.15990 3041 ft 161 kts 354°
2026-05-07 08:23 43.50946 7.15890 2975 ft 161 kts 354°
2026-05-07 08:23 43.52046 7.15788 2808 ft 156 kts 354°
2026-05-07 08:23 43.53117 7.15687 2599 ft 151 kts 354°
2026-05-07 08:23 43.54154 7.15586 2402 ft 147 kts 354°
2026-05-07 08:24 43.55169 7.15488 2211 ft 145 kts 355°
2026-05-07 08:24 43.56169 7.15391 2027 ft 143 kts 355°
2026-05-07 08:24 43.57144 7.15330 1808 ft 138 kts
2026-05-07 08:24 43.58100 7.15355 1507 ft 136 kts 359°
2026-05-07 08:25 43.59020 7.15309 1295 ft 129 kts 357°
2026-05-07 08:25 43.59910 7.15246 1062 ft 127 kts 358°
2026-05-07 08:25 43.60791 7.15320 850 ft 125 kts 13°
2026-05-07 08:25 43.61581 7.15751 834 ft 124 kts 33°
2026-05-07 08:26 43.62987 7.17363 672 ft 138 kts 48°
2026-05-07 08:26 43.63654 7.18303 464 ft 133 kts 46°
2026-05-07 08:26 43.64302 7.19163 252 ft 124 kts 49°
2026-05-07 08:27 43.64897 7.20010 135 ft 123 kts 49°
2026-05-07 08:27 43.65499 7.20839 30 ft 116 kts 47°
2026-05-07 08:27 43.65976 7.21501 28 ft 81 kts 44°
2026-05-07 08:27 43.66294 7.21929 30 ft 29 kts 38°
2026-05-07 08:28 43.66462 7.22032 28 ft 24 kts 18°
2026-05-07 08:28 43.66515 7.22049 28 ft 15 kts 357°
2026-05-07 08:28 43.66558 7.22017 28 ft 4 kts 320°
2026-05-07 08:28 43.66635 7.21911 28 ft 7 kts 297°
2026-05-07 08:29 43.66626 7.21836 28 ft 10 kts 235°
2026-05-07 08:29 43.66567 7.21751 28 ft 14 kts 226°
2026-05-07 08:29 43.66487 7.21641 28 ft 19 kts 224°
2026-05-07 08:29 43.66388 7.21504 28 ft 20 kts 226°
2026-05-07 08:30 43.66349 7.21328 28 ft 19 kts 261°
2026-05-07 08:30 43.66346 7.21228 27 ft 3 kts 306°
2026-05-07 08:30 43.66376 7.21218 28 ft 6 kts 352°
2026-05-07 08:30 43.66407 7.21212 28 ft 0 kts 352°